Flag Weather past 2 weeks in Winnipeg, Manitoba, Canada

Now
-8 °F

Frigid.


Feels Like: -8 °F
Forecast: -15 / 5 °F
Wind: 1 mph from Northeast

Location: Winnipeg The Forks

Current Time: Nov 27, 2014 at 1:20:18 AM

Latest Report: Nov 27, 2014 at 12:00 AM


Visibility: N/A

Pressure: 30.62 "Hg

Humidity: 74%

Dew point: -14 °F

Location of WinnipegLocation

Historic Weather in Winnipeg — Graph

°F

Winnipeg temperature yesterday

Maximum temperature yesterday: -2 °F (at 3:00 PM)
Minimum temperature yesterday: -11 °F (at 9:00 AM)
Average temperature yesterday: -6 °F

Past Weeks' High & Low Weather Summary

 TemperatureHumidityPressure
High36 °F (Nov 21, 9:00 PM)96% (Nov 23, 8:00 AM)30.62 "Hg (Nov 23, 8:00 AM)
Low-11 °F (Nov 26, 9:00 AM)54% (Nov 14, 2:00 PM)29.33 "Hg (Nov 23, 3:00 AM)
Average14 °F74%30.03 "Hg
* Reported Midnight between Nov 11 and Nov 12 — Midnight between Nov 26 and Nov 27, Winnipeg, Weather by CustomWeather, © 2014

Note: Actual official high and low records may vary slightly from our data, if they occured in-between our weather recording intervals... More about our weather records

Advertising

Winnipeg weather history for previous 24 hours

 ConditionsComfort  
Time TempWeatherWind HumidityBarometerVisibility
12:00 AM
Nov 27
-8 °FFrigid.1 mph74%30.62 "HgN/A
11:00 PM
Nov 26
-7 °FFrigid.1 mph72%30.60 "HgN/A
10:00 PM-6 °FFrigid.3 mph70%30.62 "HgN/A
9:00 PM-6 °FFrigid.3 mph70%30.62 "HgN/A
8:00 PM-5 °FFrigid.2 mph70%30.62 "HgN/A
7:00 PM-4 °FFrigid.3 mph70%30.61 "HgN/A
6:00 PM-4 °FFrigid.2 mph69%30.60 "HgN/A
5:00 PM-3 °FFrigid.3 mph67%30.60 "HgN/A
4:00 PM-3 °FFrigid.3 mph66%30.58 "HgN/A
3:00 PM-2 °FFrigid.3 mph66%30.57 "HgN/A
2:00 PM-4 °FFrigid.7 mph73%30.56 "HgN/A
1:00 PM-5 °FFrigid.6 mph66%30.56 "HgN/A
12:00 PM-7 °FFrigid.6 mph67%30.56 "HgN/A
11:00 AM-8 °FFrigid.6 mph69%30.57 "HgN/A
10:00 AM-10 °FFrigid.3 mph75%30.55 "HgN/A
9:00 AM-11 °FExtremely cold.6 mph76%30.53 "HgN/A
8:00 AM-11 °FExtremely cold.5 mph76%30.50 "HgN/A
7:00 AM-11 °FExtremely cold.3 mph76%30.48 "HgN/A
6:00 AMN/A5 mphN/A30.47 "HgN/A
5:00 AM-9 °FFrigid.6 mph76%30.45 "HgN/A
4:00 AM-8 °FFrigid.6 mph75%30.43 "HgN/A
3:00 AM-8 °FFrigid.7 mph76%30.42 "HgN/A
2:00 AM-7 °FFrigid.7 mph76%30.39 "HgN/A
1:00 AM-6 °FFrigid.7 mph76%30.35 "HgN/A
Weather by CustomWeather, © 2014

See weather overviewHow to use our weather pages